Preview of NWS' New Version of Forecast
This preview is not operational and should not be used for support decisions.

Regional Weather Roundup (RWR)

Issued by Tampa Bay Area, FL (TBW)

                            
115 
NZUS99 KTBW 212317
RWRTBW
Regional Weather Roundup National Weather Service Ruskin Florida
700 PM EDT THU JUN 21 2018

  
CITY           SKY/WX    TMP DP  RH WIND       PRES   REMARKS
Cross City     FAIR      86  79  78 W8        29.89S HX 100           
Williston      SUNNY     86  84  94 SW6       29.88F HX 108           
Gainesville    FAIR      86  75  69 W12       29.89F HX  95           
Ocala          FAIR      82  78  88 W7        29.89F                  
Crystal River  FAIR      84  77  79 W9        29.90S                  
Inverness      FAIR      84  81  89 CALM      29.89F HX  98           
Leesburg       FAIR      82  78  88 SW5       29.90F                  
Orlando        CLOUDY    82  76  81 SW7       29.91R                  
Brooksville    FAIR      87  76  69 W12       29.91F HX  97           
Zephyrhills    FAIR      87  75  67 W7        29.92R HX  96           
Lakeland       MOSUNNY   88  73  62 NW8       29.92S HX  96           
Winter Haven   FAIR      85  76  74 CALM      29.93R                  
Bartow         FAIR      84  75  74 NW5       29.93R                  

CITY           SKY/WX    TMP DP  RH WIND       PRES   REMARKS
Tampa Intl     PTSUNNY   86  75  70 NW10      29.91F HX  95           
Tampa Exec     FAIR      88  73  62 W5        29.91F HX  96           
MacDill AFB    FAIR      86  75  68 W7        29.92S HX  95           
Peter O Knight FAIR      88  73  62 W8        29.92R HX  96           
Plant City     FAIR      88  73  62 NW7       29.94R HX  96           
Clearwater     FAIR      85  77  77 NW10      29.91F HX  95           
St Petersburg  PTSUNNY   87  76  69 W9        29.89F HX  97           
Sarasota       FAIR      86  75  69 NW12      29.92R HX  95           
Sebring        CLOUDY    74  71  90 SW13G30   29.96R VSB 3/4          
Punta Gorda    FAIR      88  73  61 W9        29.94R HX  95           
Ft Myers       FAIR      86  73  65 W9        29.93R                  
Ft Myers-RSW   FAIR      85  74  69 W6        29.94R                  
Naples         FAIR      87  76  69 W8        29.93R HX  97           

STATION/POSITION SKY/WX   TEMP WIND        PRES    VSBY
                          AIR  DIR/SP/G
                          (F)  (DEG/KT/KT) (MB)    (MI)
Keaton Beach               86  250/ 17/ 18 1012.2S
Sand Key                   84              1014.0F
039 Panama City            85  260/ 10/ 12 1013.2R
003 Captiva                84  240/  8/ 10 1014.1
Venice                     85  310/  8/ 10 1014.1R
Cedar Key                  85  260/  8/ 11 1012.7F

CITY           SKY/WX    TMP DP  RH WIND       PRES   REMARKS
Tallahassee    PTSUNNY   94  69  44 W13       29.87R HX  99           
Daytona Beach  LGT RAIN  76  76 100 SW6       29.88S                  
Melbourne      FAIR      84  74  71 W3        29.91R                  
W Palm Beach   PTSUNNY   82  75  79 NW7       29.93R                  
Miami          PTSUNNY   86  76  71 SW6       29.93R THUNDER HX  96   
Key West       FAIR      85  76  74 SW8       29.94S                  
San Juan, PR   MOCLDY    82  73  74 E7        30.04R                  
Cancun, MX     PTSUNNY   84  77  79 SE13      29.91S